ATLAS 5 CENTAUR DEB, 43981

Orbit data source: Space-Track

ATLAS 5 CENTAUR DEB, 43981 is space debris in HEO originally from a launch on Wed, 17 Sep 2014 UTC launched from the Air Force Eastern Test Range (AFETR). Debris objects in space refer to the collection of defunct objects orbiting the Earth. Examples of debris include non-operational satellites, rocket bodies, and fragments generated from explosions, collisions, or faulty payload assembly.

Loading next visibility...
Identifier
43981, 2014-055AL
Orbit
HEO
Last TLE update
19 hours ago
Origin
Manufacturer
Unknown
Mission
Spacecraft
Bus & Motor
Unknown
Mass
Unknown
Launch date (UTC)
2014-09-17 (11 years ago)
Launch vehicle
Unknown
Launch site
Air Force Eastern Test Range (AFETR)
Object type
Payload
Rocket body
Debris
Shape & HBR
Unknown
Radar Cross Section
Small (<0.1 m²)

Expand to show TLE details & history

TLE from 19 hours ago
0 ATLAS 5 CENTAUR DEB
1 43981U 14055AL  25133.55041456 -.00000000  00000-0  00000+0 0  9994
2 43981  19.3070 178.4965 5219434  98.4213 321.3689  1.78787686 43627
Epoch: 2025-05-13T13:12Z
Definitive object data (Epoch: 2025-05-13T13:12:35.817Z)
Latitude
Longitude
108.93663°
Altitude
16,156.225 km
Speed
4.634 km/s
True Right ascension
11h 54m 32s
True Declination
0° 00' 00"
Sunlit
Object was in daylight at TLE epoch
Visualization TLE readout
Latitude
-17.90405°
Longitude
-3.9558°
Altitude
31,703.662 km
Speed
2.652 km/s
Apparent Right ascension
04h 23m 43s
Apparent Declination
-20° 58' 10"
Sunlit
Object is in daylight
Visualization observer readout
Local Sidereal Time
16:29:19
Azimuth
4.026° NNE
Elevation
-71.015°
Doppler factor
1
Orbital elements
Apogee altitude
37,267.437 km
Perigee altitude
7,331.344 km
Semi-major axis
28,677.528 km
Eccentricity
0.5219434
Inclination
19.307°
RAAN
178.4965°
Arg. of periapsis
98.4213°
True anomaly
261.65764°
Mean anomaly
321.3689°
Eccentric anomaly
294.06246°
Mean motion
0.44692 °/min
BSTAR
Unknown
Orbital period
805.51 mins
Loading maneuver chart data...
Loading SW <> Apogee altitude chart data...
Loading historical data...
Loading historical data...
Loading historical data...
Loading historical data...
Loading historical data...
Loading historical data...
Loading historical data...

ATLAS 5 CENTAUR DEB Visibility forecast

Observer location: undefined°, undefined°

Span
Click to sort rows by Start time (UTC) header in descending order
Start Az.
Max El. time (UTC)
Max El. Az.
Max El.
End time (UTC)
End Az.
756 mins2025-05-14 18:25:31.329Z244.506° WSW2025-05-15 06:25:31.329Z168.185° S37.097°2025-05-15 07:01:31.329Z97.815° ESE
|